Location: Trenton
(45.6167°N, 62.6167°W)
Time: 21:25:43
(UTC+00:00)

Nauka - Pass Details

Date: 02 October 2021
Orbit: 417 x 423 km, 51.6° (Epoch: 19 October)

Event Time Altitude Azimuth Distance (km) Brightness Sun altitude
Rises 22:07:14 0° 297° (WNW) 2,365 ? -4.1°
Reaches altitude 10° 22:09:25 10° 305° (NW) 1,500 ? -4.5°
Maximum altitude 22:12:38 42° 18° (NNE) 609 ? -5.1°
Drops below altitude 10° 22:15:52 10° 91° (E) 1,498 ? -5.7°
Enters shadow 22:16:22 - 94° (E) 1,699 ? -5.7°
